Regional Weather Roundup
Issued by NWS Newport/Morehead, NC

Current Version | Previous Version | Graphics & Text | Print | Product List | Glossary On
Versions: 1 2 3 4 5 6 7 8 9 10 11 12 13 14 15 16 17 18 19 20 21 22 23 24 25 26 27 28 29 30 31 32 33 34 35 36 37 38 39 40 41 42 43 44 45 46 47 48 49 50
000 ASUS42 KMHX 030924 RWRMHX WEATHER ROUNDUP FOR EASTERN NORTH CAROLINA NATIONAL WEATHER SERVICE NEWPORT/MOREHEAD CITY NC 400 AM EST TUE MAR 03 2015 NOTE: "FAIR" INDICATES FEW OR NO CLOUDS BELOW 12,000 FEET WITH NO SIGNIFICANT WEATHER AND/OR OBSTRUCTIONS TO VISIBILITY NCZ015>017-031-032-045>047-102-103-031000- NORTH COAST CITY SKY/WX TMP DP RH WIND PRES REMARKS EDENTON PTCLDY 33 25 71 N3 30.39R ELIZABETH CITY PTCLDY 34 21 59 N10 30.39F KITTY HAWK MOSUNNY 36 28 73 N6 30.36S MANTEO PTCLDY 36 27 69 N6 30.38S $$ NCZ045>047-081-094-103-104-031000- CENTRAL COAST CITY SKY/WX TMP DP RH WIND PRES REMARKS FRISCO CLEAR 39 30 70 NE8 30.36R SWANQUARTER N/A 36 N/A N/A NE5 30.33S $$ NCZ095-097-098-100-101-031000- SOUTHERN COAST CITY SKY/WX TMP DP RH WIND PRES REMARKS BEAUFORT PTCLDY 39 29 67 NE9 30.34F CEDAR ISLAND N/A 39 N/A N/A N12G17 30.39F JACKSONVILLE CLOUDY 40 26 57 NE8 30.34F PINEY ISLAND N/A N/A N/A N/A MISG 30.36F WILMINGTON CLOUDY 43 27 53 E10 30.33F $$ NCZ011>013-027>030-043-044-078>080-089-090>093-098-031000- COASTAL PLAIN CITY SKY/WX TMP DP RH WIND PRES REMARKS AHOSKIE MOCLDY 31 20 63 CALM 30.40R CLINTON CLOUDY 41 29 63 E3 30.36R ELIZABETHTOWN CLOUDY 41 28 60 NE3 30.33F GOLDSBORO CLOUDY 38 36 91 E7 30.34F GREENVILLE MOCLDY 34 32 93 CALM 30.38S HAVELOCK MOCLDY 40 25 55 NE10 30.36F KENANSVILLE CLOUDY 39 26 58 E3 30.36S KINSTON CLOUDY 38 27 62 E7 30.38S NEW BERN MOCLDY 38 26 62 NE7 30.38S RICHLANDS CLOUDY 39 25 56 NE12 30.35S ROCKY MOUNT MOCLDY 37 25 61 E3 30.37F WASHINGTON PTCLDY 31 28 88 CALM 30.39R WHITEVILLE CLOUDY 42 31 63 NE9 30.31S $$ AMZ130-135-150-152-154-156-158-170-250-252-270-ANZ085-086-088-633-658-670-031000- MARINE OBSERVATIONS STATION/POSITION TIME TEMP WIND PRES WAVE SWELL AIR SEA DIR/SP/G HT/PER HT/PER (UTC) (F) (DEG/KT/KT) (MB) (FT/S) (FT/S) CHESAPEAKE LIGHT 0900 34 40/ 18/ 19 1029.3 64 E VA BEACH 0850 42 59 20/ 16/ 19 1027.7 5/ 7 2/ 9 DUCK 0900 36 35 1027.8 2 E DUCK 0811 34 N/A 4/ 6 10 NE DUCK 0822 37 N/A 4/ 6 OREGON INLET 0900 36 40 1028.1 HATTERAS CG 0900 40 44 1028.1 CAPE LOOKOUT 0900 41 20/ 12/ 14 1027.1 BEAUFORT LAB 0900 39 44 1026.3 27 SE WRIGHTSVLE NOT AVBL 5 SE WRIGHTSVLE NOT AVBL 225 S CAPE HAT 0850 66 73 50/ 17/ 21 1023.3 6/ 8 2/16 41 SE CHARLESTON 0850 66 68 80/ 14/ 16 1022.6 4/ 9 3/ 9 $$

USA.gov is the U.S. government's official web portal to all federal, state and local government web resources and services.